This is the latest recevied weather packets stored in our database for station/object KC0CAU. If no packets are shown the sender has not sent any weather packets the latest 10 day(s).
| Time | Temp. | Humidity | Pressure | Rain* | Wind** | Luminosity | Snow |
|---|---|---|---|---|---|---|---|
| 1777489237 | 11.11° C | 47% | 1021.1 hPa | 0 mm | - | - | - |
| 1777488335 | 11.11° C | 48% | 1021 hPa | 0 mm | - | - | - |
| 1777487435 | 11.11° C | 50% | 1020.9 hPa | 0 mm | - | - | - |
| 1777486535 | 11.11° C | 47% | 1021 hPa | 0 mm | - | - | - |
| 1777485634 | 10.56° C | 47% | 1021 hPa | 0 mm | - | - | - |
| 1777484742 | 10.56° C | 48% | 1021.1 hPa | 0 mm | - | - | - |
| 1777483837 | 11.11° C | 49% | 1020.9 hPa | 0 mm | - | - | - |
| 1777482932 | 11.11° C | 49% | 1020.9 hPa | 0 mm | - | - | - |
| 1777482038 | 10.56° C | 46% | 1021 hPa | 0 mm | - | - | - |
| 1777481133 | 10.56° C | 48% | 1021 hPa | 0 mm | - | - | - |
| 1777480231 | 10° C | 51% | 1021.1 hPa | 0 mm | - | - | - |
| 1777479323 | 9.44° C | 50% | 1021.1 hPa | 0 mm | - | - | - |
| 1777478423 | 8.89° C | 54% | 1021.2 hPa | 0 mm | - | - | - |
| 1777477523 | 8.89° C | 55% | 1021.1 hPa | 0 mm | - | - | - |
| 1777476615 | 8.33° C | 57% | 1021.1 hPa | 0 mm | - | - | - |
| 1777475713 | 7.22° C | 59% | 1021.2 hPa | 0 mm | - | - | - |
| 1777474810 | 6.67° C | 59% | 1021.5 hPa | 0 mm | - | - | - |
| 1777473912 | 6.11° C | 60% | 1021.5 hPa | 0 mm | - | - | - |
| 1777473002 | 5° C | 61% | 1021.5 hPa | 0 mm | - | - | - |
| 1777472162 | 4.44° C | 64% | 1021.5 hPa | 0 mm | - | - | - |
| 1777471255 | 3.33° C | 66% | 1021.5 hPa | 0 mm | - | - | - |
| 1777470350 | 2.22° C | 69% | 1021.6 hPa | 0 mm | - | - | - |
| 1777469457 | 1.11° C | 72% | 1021.7 hPa | 0 mm | - | - | - |
| 1777468571 | 0° C | 75% | 1021.8 hPa | 0 mm | - | - | - |
| 1777467655 | -0.56° C | 75% | 1021.7 hPa | 0 mm | - | - | - |
* Rain latest hour (hover to see other rain measurements)
** Current wind speed in m/s (hover to see current wind gust speed)